Orbital elements:
    C/2002 H2 (LINEAR)
Epoch 2002 Mar. 27.0 TT = JDT 2452360.5
T 2002 Mar. 23.40415 TT                                 MPC
q   1.6347950            (2000.0)            P               Q
z  +0.0037334      Peri.   20.41600     -0.13849464     -0.32208989
 +/-0.0001366      Node   269.00076     -0.98773465     -0.02392881
e   0.9938966      Incl.  110.50093     -0.07210752     +0.94640663
Residuals in seconds of arc
020422 704  0.2+  0.1+    020502 379  0.2-  1.2-    020517 939  0.0   0.2-
020422 704  1.6-  0.1+    020502 379  0.4-  1.2-    020517 939  0.5-  0.5+
020422 704  0.9-  0.5+    020502 379  1.0-  0.3-    020518 A46  1.3-  0.6-
020422 198  0.0   0.6-    020502 379  0.4-  0.8-    020518 A46  0.8-  0.3+
020422 198  1.6-  0.8+    020502 379  0.4-  0.5+    020518 A46  0.9-  0.6+
020422 198  0.2-  0.0     020503 452  0.7+  0.2+    020518 057  0.1+  0.0
020422 198  0.8+  0.6+    020503 452  0.4+  0.3-    020518 A46  1.4-  0.7-
020422 198  0.2-  0.5-    020503 452  2.0+  0.2-    020518 057  0.6-  0.1-
020422 198  0.4-  0.3+    020503 452  0.8+  0.2-    020518 057 (0.1-  2.3-)
020422 198  0.8+  1.3+    020503 452  0.5+  0.5+    020518 057 (4.0+  2.3-)
020422 198  0.3-  0.5+    020503 704 (2.9-  1.1-)   020519 170 (1.5+  2.2-)
020422 198  0.2-  0.5-    020503 704 (3.4-  0.0 )   020519 170  0.4-  0.1-
020423 198  0.2+  0.5-    020503 704 (2.7-  0.6+)   020519 379  1.0+  0.1-
020423 198  0.3+  0.2-    020503 704 (2.4-  0.1+)   020519 379  0.3-  0.8+
020423 198  0.1+  0.3+    020505 939  0.5+  0.6+    020519 213  0.2-  0.5-
020423 198  0.4+  0.8+    020505 939  0.1+  0.6+    020519 213  1.0-  0.1-
020423 198  0.4+  0.0     020505 939  0.6-  0.2+    020520 232  1.8-  0.6+
020423 198  0.3+  1.3+    020505 452  0.2+  0.1+    020520 232  0.2-  0.3-
020423 557  0.1+  0.0     020505 452  1.1+  0.1+    020520 379  0.4+  0.2+
020423 557  0.0   0.1+    020505 452  0.0   0.6+    020520 379  0.6+  0.5+
020423 557  0.3-  0.2+    020505 452  0.4+  0.7+    020520 379  0.1-  0.4+
020423 557  0.0   0.0     020505 379  0.1-  0.4+    020520 360  0.4+  0.1+
020423 428  0.3+  0.3-    020505 379  0.4+  0.3+    020520 360  0.1+  0.3+
020423 428  0.1-  1.8-    020505 379  0.5-  0.6-    020520 104  0.7+  0.2+
020423 413  0.4-  0.3-    020505 367  0.6-  0.0     020520 104  0.9+  0.4-
020423 413  0.1+  0.3-    020505 367  0.5-  0.1-    020520 104  0.3+  0.3+
020423 620  1.3+  0.0     020505 367  0.2-  0.1+    020520 104  0.4+  0.1+
020423 620  0.5+  0.4-    020507 049  0.0   0.2-    020521 355  0.2-  0.6-
020423 620  0.5+  0.1+    020507 049  0.5-  0.2+    020521 355  0.3-  0.6-
020424 201  0.0   0.9-    020507 049  0.0   0.0     020521 355  0.4-  0.5-
020424 201  1.4-  0.4-    020507 049  0.0   0.2-    020521 342  1.4+  1.0-
020425 170  1.4-  0.4+    020507 049  0.4+  0.3-    020521 342  0.8+  0.3-
020425 170  1.2+  0.1-    020507 049  0.1+  0.6-    020521 349  0.3-  0.1-
020425 170  0.2+  0.9-    020507 A46  0.1-  0.2+    020521 349  0.0   0.0
020425 198  0.2-  0.2+    020507 A46  0.7-  0.2+    020521 349  0.4+  0.5-
020425 198  0.5-  0.2-    020507 A46  0.5-  0.3+    020521 349  0.1-  0.6-
020425 198  0.2+  0.8-    020507 A46  0.6-  0.3+    020523 704 (2.2-  0.4+)
020425 198  0.3+  0.6-    020508 379 (0.5-  2.3+)   020523 704  0.7-  1.1+
020426 204  0.2+  0.3-    020508 379  0.1-  0.5+    020523 704  0.8-  0.3+
020426 204  0.2+  0.4-    020509 046  0.0   0.2-    020523 170  0.1-  0.6+
020426 204  0.0   0.1-    020509 046  0.3-  0.2-    020523 170  0.1+  0.2+
020427 355  0.1-  0.6-    020509 046  0.5-  0.3-    020523 170  0.2-  0.3+
020427 355  0.5-  0.5+    020509 046  0.1-  0.2-    020523 176 (8.2+  6.6-)
020427 349  0.4-  0.2-    020509 049  0.4-  0.4+    020523 176  0.4-  0.1+
020427 349  0.0   0.4+    020509 049  0.2+  0.2+    020523 176  0.4-  0.3+
020427 349  0.4-  0.0     020509 049  0.1-  0.4+    020523 176  0.0   0.1+
020427 349  0.1-  0.2-    020509 049  0.3-  1.1-    020524 340  0.3+  0.3-
020428 204  0.1+  0.0     020509 049  0.1-  0.4-    020524 340  0.5+  0.5-
020428 204  0.2+  0.0     020509 049  0.1-  0.1+    020524 340  0.1+  0.9-
020428 204  0.2-  0.1-    020511 049  0.3+  0.3-    020524 342  0.2-  0.4-
020428 379  0.6+  0.7-    020511 049  0.3+  0.4-    020524 342  0.1-  0.6-
020428 379  1.4+  0.6-    020511 049  0.1+  0.4-    020525 232  1.5-  0.3-
020428 379  1.8+  0.6-    020511 049  0.9+  0.9-    020525 367  1.3+  0.9+
020428 379  1.9+  0.3+    020512 212  0.1+  0.3-    020525 367  1.4+  0.3+
020428 379  1.3+  0.7+    020512 212  0.1-  0.5-    020525 367  1.1+  0.8+
020428 057 (1.4+  2.9-)   020512 642  0.2+  0.9+    020525 213  0.1-  0.1+
020428 057 (6.4+  0.4+)   020512 642  1.1+  0.1-    020525 213  0.3+  0.3+
020428 057 (2.5-  1.5-)   020512 642  0.1-  0.3+    020525 213  0.8+  0.5+
020428 057 (2.2+  0.5+)   020512 367  0.2-  0.2-    020525 201  0.6+  0.7+
020428 057 (2.3-  5.2-)   020512 367  0.0   0.6-    020525 201  0.3+  0.5+
020429 213  0.9+  0.6-    020512 367  0.3-  0.3-    020525 201  0.2+  0.5+
020429 213  0.7-  0.5-    020512 360  0.3+  0.4-    020526 941  0.6-  0.8+
020429 213  1.3-  0.3+    020512 360  0.3+  0.5-    020526 941  0.3+  0.2+
020430 A46  0.4-  1.2+    020512 213  0.9+  0.7-    020526 941  0.1+  0.9+
020430 A46  0.0   1.2+    020512 213  1.0+  1.2-    020528 170  0.9-  0.3-
020430 A46  0.7+  1.3+    020513 342  0.1+  1.2-    020529 704  1.1-  0.7-
020430 A46  0.3-  0.9+    020513 342  0.7+  0.2-    020529 704 (2.2-  1.2+)
020430 157  0.8+  0.2+    020514 213  1.5-  0.1+    020529 704 (2.5-  1.4+)
020501 157  0.5-  0.6-    020514 213  1.0+  0.5-    020529 704 (3.0-  1.6+)
020501 157  0.2+  0.3-    020515 235  0.2-  0.8+    020529 704 (4.1-  3.0+)
020501 157  0.4+  1.0+    020515 157  0.5+  0.0     020529 340  0.1-  1.6-
020501 213  0.7+  0.6+    020515 157  0.2+  0.1-    020529 340  0.4-  0.3-
020501 939  0.2-  0.7+    020515 157  0.3+  0.3-    020529 340  0.2+  0.5-
020501 939  0.4-  0.6+    020515 157  0.8+  0.1+    020529 235  1.9-  1.5+
020501 939  0.4-  0.2+    020515 215  0.0   0.0     020530 620  0.1-  0.2-
020501 367  0.5+  0.9-    020515 215  0.1+  0.2-    020530 620  0.5-  0.2-
020501 367  0.3-  0.6+    020515 215  0.1+  0.1-    020530 620  0.8-  0.1-
020501 367  1.1-  0.3-    020516 046  0.2+  0.1+    020531 213  0.4+  1.2+
020501 367  0.6-  0.1+    020516 046  0.3+  0.8+    020531 213  0.2-  0.2-
020501 367  0.5-  0.1-    020516 046  0.5+  0.4+    020531 157  1.8+  0.2-
020501 A46  0.4-  0.6+    020516 A46  0.5-  0.6+    020531 157  0.7+  0.5+
020501 A46  0.7-  0.5+    020516 A46  0.7-  0.2+    020531 157  0.3+  0.4-
020501 A46  0.5-  0.1+    020516 A46  1.0-  0.3+    020531 157  0.6+  0.4+
020501 A46  0.4-  0.3+    020516 A46  0.2-  0.5+    020531 J95  0.2+  0.7-
020502 349  0.6-  0.2-    020516 A46  0.5-  0.5+    020531 J95  0.1+  0.4+
020502 349  0.2-  0.6+    020517 201  0.1-  0.1+    020601 J95  0.3-  0.7-
020502 349  0.0   0.3-    020517 201  0.0   0.0     020601 J95  0.2+  0.8-
020502 349  0.3-  0.2-    020517 201  0.8+  0.7+
020502 349  0.4-  0.1-    020517 939  0.2+  0.6-

     The "original" and "future" barycentric values of 1/a are +0.004260
and +0.004034 (+/- 0.000137) AU**-1, respectively.

Brian G. Marsden             (C) Copyright 2002 MPC           M.P.E.C. 2002-L07

Read MPEC 2002-L06 Read MPEC 2002-L08


Our Web policy. Index to the CBAT/MPC/ICQ pages.

